FBZ5900 SABE-SAZM

Flight info

Callsign FBZ5900
Flight time 0h 42m
Altitude 33000
Route PTA8 GBE UW29 VOTRA VOTRA2U
Aircraft B738/M-SDE2E3FGHIRWXY/LB1

Departure

Time 2026-05-08 02:44
Airport Aeroparque Jorge Newbery (SABE)

Arrival

Time 2026-05-08 03:27
Airport Ástor Piazzola International Airport (SAZM)
Time Latitude Longitude Altitude Speed Heading
2026-05-08 02:18 -34.55838 -58.41369 24 ft 0 kts 207°
2026-05-08 02:31 -34.55837 -58.41369 25 ft 1 kts 207°
2026-05-08 02:31 -34.55823 -58.41360 25 ft 3 kts 213°
2026-05-08 02:32 -34.55809 -58.41346 25 ft 3 kts 256°
2026-05-08 02:32 -34.55810 -58.41335 25 ft 2 kts 301°
2026-05-08 02:32 -34.55819 -58.41315 25 ft 3 kts 301°
2026-05-08 02:32 -34.55829 -58.41296 25 ft 2 kts 301°
2026-05-08 02:33 -34.55830 -58.41293 25 ft 0 kts 301°
2026-05-08 02:35 -34.55825 -58.41303 25 ft 4 kts 301°
2026-05-08 02:35 -34.55806 -58.41341 25 ft 6 kts 301°
2026-05-08 02:36 -34.55786 -58.41380 25 ft 6 kts 307°
2026-05-08 02:36 -34.55763 -58.41418 25 ft 5 kts 306°
2026-05-08 02:36 -34.55737 -58.41471 25 ft 11 kts 298°
2026-05-08 02:36 -34.55736 -58.41557 25 ft 11 kts 234°
2026-05-08 02:37 -34.55799 -58.41576 25 ft 11 kts 140°
2026-05-08 02:37 -34.55841 -58.41503 25 ft 10 kts 119°
2026-05-08 02:37 -34.55873 -58.41426 25 ft 10 kts 116°
2026-05-08 02:37 -34.55904 -58.41351 26 ft 10 kts 116°
2026-05-08 02:38 -34.55937 -58.41280 28 ft 10 kts 124°
2026-05-08 02:38 -34.55976 -58.41216 25 ft 9 kts 128°
2026-05-08 02:38 -34.56015 -58.41154 25 ft 9 kts 127°
2026-05-08 02:38 -34.56053 -58.41095 27 ft 9 kts 127°
2026-05-08 02:39 -34.56090 -58.41036 25 ft 9 kts 127°
2026-05-08 02:39 -34.56125 -58.40979 26 ft 8 kts 124°
2026-05-08 02:39 -34.56155 -58.40920 25 ft 8 kts 120°
2026-05-08 02:39 -34.56170 -58.40858 27 ft 8 kts 89°
2026-05-08 02:40 -34.56190 -58.40798 25 ft 8 kts 121°
2026-05-08 02:40 -34.56219 -58.40745 28 ft 7 kts 124°
2026-05-08 02:40 -34.56247 -58.40694 29 ft 7 kts 123°
2026-05-08 02:40 -34.56274 -58.40645 28 ft 7 kts 124°
2026-05-08 02:41 -34.56302 -58.40598 25 ft 7 kts 126°
2026-05-08 02:41 -34.56334 -58.40557 26 ft 7 kts 137°
2026-05-08 02:41 -34.56368 -58.40519 27 ft 7 kts 139°
2026-05-08 02:41 -34.56399 -58.40486 27 ft 6 kts 138°
2026-05-08 02:42 -34.56413 -58.40471 25 ft 0 kts 138°
2026-05-08 02:42 -34.56420 -58.40464 29 ft 4 kts 137°
2026-05-08 02:43 -34.56457 -58.40423 25 ft 10 kts 137°
2026-05-08 02:43 -34.56529 -58.40395 28 ft 12 kts 206°
2026-05-08 02:43 -34.56537 -58.40482 25 ft 12 kts 303°
2026-05-08 02:43 -34.56527 -58.40500 25 ft 5 kts 303°
2026-05-08 02:44 -34.56414 -58.40704 27 ft 66 kts 304°
2026-05-08 02:44 -34.56013 -58.41418 27 ft 136 kts 304°
2026-05-08 02:44 -34.55401 -58.42520 361 ft 167 kts 305°
2026-05-08 02:44 -34.54724 -58.43789 953 ft 189 kts 306°
2026-05-08 02:45 -34.53877 -58.44951 1977 ft 175 kts 324°
2026-05-08 02:45 -34.52836 -58.45636 2956 ft 173 kts 340°
2026-05-08 02:45 -34.51770 -58.46034 4138 ft 150 kts 345°
2026-05-08 02:45 -34.50710 -58.45784 4768 ft 181 kts 27°
2026-05-08 02:46 -34.49830 -58.44363 4458 ft 249 kts 69°
2026-05-08 02:46 -34.49528 -58.42112 4228 ft 290 kts 90°
2026-05-08 02:46 -34.49853 -58.39766 4402 ft 266 kts 108°
2026-05-08 02:46 -34.50369 -58.37669 4417 ft 254 kts 110°
2026-05-08 02:47 -34.50898 -58.35627 4404 ft 261 kts 112°
2026-05-08 02:47 -34.51971 -58.33868 4904 ft 258 kts 152°
2026-05-08 02:47 -34.53615 -58.33182 5799 ft 247 kts 179°
2026-05-08 02:47 -34.55323 -58.33203 6620 ft 247 kts 188°
2026-05-08 02:48 -34.57062 -58.33387 7348 ft 254 kts 189°
2026-05-08 02:48 -34.58849 -58.33607 8077 ft 260 kts 189°
2026-05-08 02:48 -34.60672 -58.33832 8812 ft 266 kts 189°
2026-05-08 02:48 -34.62536 -58.34057 9511 ft 273 kts 189°
2026-05-08 02:49 -34.64438 -58.34281 10249 ft 277 kts 188°
2026-05-08 02:49 -34.66374 -58.34505 10987 ft 283 kts 188°
2026-05-08 02:49 -34.68319 -58.34731 11789 ft 286 kts 187°
2026-05-08 02:49 -34.70313 -58.34974 12475 ft 290 kts 187°
2026-05-08 02:50 -34.72357 -58.35204 13118 ft 298 kts 188°
2026-05-08 02:50 -34.74463 -58.35430 13514 ft 315 kts 188°
2026-05-08 02:50 -34.76731 -58.35686 13692 ft 339 kts 188°
2026-05-08 02:50 -34.79168 -58.35956 13889 ft 363 kts 188°
2026-05-08 02:51 -34.81756 -58.36226 14286 ft 379 kts 188°
2026-05-08 02:51 -34.84405 -58.36507 14900 ft 385 kts 188°
2026-05-08 02:51 -34.87106 -58.36805 15586 ft 393 kts 189°
2026-05-08 02:51 -34.89826 -58.37114 16487 ft 393 kts 189°
2026-05-08 02:52 -34.92479 -58.37403 16970 ft 401 kts 190°
2026-05-08 02:52 -34.95286 -58.37705 17468 ft 411 kts 189°
2026-05-08 02:52 -34.98151 -58.37983 18084 ft 415 kts 190°
2026-05-08 02:52 -35.01000 -58.38308 18681 ft 418 kts 191°
2026-05-08 02:53 -35.03953 -58.38662 19214 ft 424 kts 191°
2026-05-08 02:53 -35.06877 -58.38992 19769 ft 431 kts 190°
2026-05-08 02:53 -35.09883 -58.39319 20300 ft 436 kts 190°
2026-05-08 02:53 -35.12925 -58.39651 20778 ft 442 kts 190°
2026-05-08 02:54 -35.16011 -58.39984 21321 ft 447 kts 190°
2026-05-08 02:54 -35.19129 -58.40321 21823 ft 453 kts 190°
2026-05-08 02:54 -35.22292 -58.40665 22338 ft 458 kts 190°
2026-05-08 02:54 -35.25483 -58.41014 22643 ft 462 kts 190°
2026-05-08 02:55 -35.28705 -58.41367 22629 ft 465 kts 190°
2026-05-08 02:55 -35.35145 -58.42071 22636 ft 464 kts 190°
2026-05-08 02:55 -35.38359 -58.42424 22644 ft 464 kts 191°
2026-05-08 02:56 -35.41571 -58.42776 22645 ft 463 kts 191°
2026-05-08 02:56 -35.44776 -58.43132 22651 ft 463 kts 190°
2026-05-08 02:56 -35.47985 -58.43488 22649 ft 463 kts 190°
2026-05-08 02:56 -35.51195 -58.43844 22647 ft 463 kts 191°
2026-05-08 02:57 -35.54404 -58.44200 22646 ft 463 kts 190°
2026-05-08 02:57 -35.57609 -58.44555 22642 ft 463 kts 190°
2026-05-08 02:57 -35.60811 -58.44910 22635 ft 462 kts 191°
2026-05-08 02:57 -35.64004 -58.45265 22635 ft 461 kts 191°
2026-05-08 02:58 -35.67198 -58.45620 22633 ft 460 kts 191°
2026-05-08 02:58 -35.70390 -58.45975 22646 ft 466 kts 191°
2026-05-08 02:58 -35.73696 -58.46234 22641 ft 486 kts 184°
2026-05-08 02:58 -35.77084 -58.45942 22648 ft 505 kts 174°
2026-05-08 02:59 -35.80573 -58.45000 22657 ft 520 kts 168°
2026-05-08 02:59 -35.84111 -58.43829 22647 ft 532 kts 166°
2026-05-08 02:59 -35.87706 -58.42572 22645 ft 541 kts 166°
2026-05-08 02:59 -35.91337 -58.41296 22634 ft 544 kts 166°
2026-05-08 03:00 -35.94975 -58.40036 22620 ft 542 kts 166°
2026-05-08 03:00 -35.98611 -58.38804 22610 ft 542 kts 167°
2026-05-08 03:00 -36.02247 -58.37593 22603 ft 541 kts 167°
2026-05-08 03:00 -36.05881 -58.36395 22603 ft 540 kts 167°
2026-05-08 03:01 -36.09513 -58.35205 22603 ft 539 kts 167°
2026-05-08 03:01 -36.13149 -58.34015 22606 ft 542 kts 167°
2026-05-08 03:01 -36.16805 -58.32816 22606 ft 544 kts 167°
2026-05-08 03:01 -36.20455 -58.31615 22597 ft 543 kts 167°
2026-05-08 03:02 -36.24112 -58.30408 22599 ft 542 kts 167°
2026-05-08 03:02 -36.27748 -58.29205 22597 ft 542 kts 167°
2026-05-08 03:02 -36.31390 -58.27999 22593 ft 543 kts 167°
2026-05-08 03:02 -36.35048 -58.26786 22591 ft 543 kts 167°
2026-05-08 03:03 -36.38698 -58.25572 22591 ft 543 kts 166°
2026-05-08 03:03 -36.42374 -58.24356 22578 ft 551 kts 165°
2026-05-08 03:03 -36.46098 -58.23118 22585 ft 553 kts 163°
2026-05-08 03:03 -36.49740 -58.21908 22470 ft 531 kts 163°
2026-05-08 03:04 -36.53155 -58.20773 22468 ft 498 kts 163°
2026-05-08 03:04 -36.56408 -58.19690 22498 ft 474 kts 163°
2026-05-08 03:04 -36.59559 -58.18636 22452 ft 465 kts 163°
2026-05-08 03:04 -36.62664 -58.17599 22090 ft 460 kts 163°
2026-05-08 03:05 -36.65738 -58.16569 21573 ft 454 kts 163°
2026-05-08 03:05 -36.68766 -58.15556 20976 ft 446 kts 163°
2026-05-08 03:05 -36.71745 -58.14555 20361 ft 440 kts 163°
2026-05-08 03:05 -36.74672 -58.13576 19852 ft 430 kts 163°
2026-05-08 03:06 -36.77530 -58.12621 19331 ft 421 kts 163°
2026-05-08 03:06 -36.80335 -58.11683 18770 ft 413 kts 163°
2026-05-08 03:06 -36.83092 -58.10760 18185 ft 406 kts 163°
2026-05-08 03:06 -36.85789 -58.09854 17644 ft 398 kts 163°
2026-05-08 03:07 -36.88442 -58.08963 17070 ft 391 kts 163°
2026-05-08 03:07 -36.91042 -58.08085 16445 ft 385 kts 163°
2026-05-08 03:07 -36.93618 -58.07214 15824 ft 380 kts 164°
2026-05-08 03:07 -36.96153 -58.06360 15253 ft 373 kts 165°
2026-05-08 03:08 -36.98645 -58.05519 14683 ft 367 kts 165°
2026-05-08 03:08 -37.01093 -58.04694 14059 ft 362 kts 165°
2026-05-08 03:08 -37.03509 -58.03878 13443 ft 357 kts 165°
2026-05-08 03:08 -37.05885 -58.03059 12877 ft 350 kts 163°
2026-05-08 03:09 -37.08054 -58.01733 12261 ft 346 kts 148°
2026-05-08 03:09 -37.10058 -58.00098 11618 ft 341 kts 148°
2026-05-08 03:09 -37.12020 -57.98453 11003 ft 338 kts 147°
2026-05-08 03:09 -37.13975 -57.96812 10703 ft 340 kts 148°
2026-05-08 03:10 -37.15937 -57.95178 10583 ft 337 kts 148°
2026-05-08 03:10 -37.17898 -57.93554 10535 ft 337 kts 148°
2026-05-08 03:10 -37.19850 -57.91943 10525 ft 335 kts 148°
2026-05-08 03:10 -37.21774 -57.90363 10526 ft 335 kts 148°
2026-05-08 03:11 -37.23728 -57.88763 10527 ft 336 kts 148°
2026-05-08 03:11 -37.25688 -57.87157 10524 ft 336 kts 148°
2026-05-08 03:11 -37.27640 -57.85558 10516 ft 335 kts 148°
2026-05-08 03:11 -37.29587 -57.83963 10514 ft 335 kts 148°
2026-05-08 03:12 -37.31536 -57.82365 10512 ft 334 kts 148°
2026-05-08 03:12 -37.33485 -57.80765 10515 ft 335 kts 148°
2026-05-08 03:12 -37.35438 -57.79162 10517 ft 335 kts 148°
2026-05-08 03:12 -37.37386 -57.77560 10512 ft 335 kts 148°
2026-05-08 03:13 -37.39337 -57.75959 10509 ft 334 kts 148°
2026-05-08 03:13 -37.41283 -57.74357 10510 ft 334 kts 148°
2026-05-08 03:13 -37.43225 -57.72758 10506 ft 334 kts 148°
2026-05-08 03:13 -37.45162 -57.71162 10506 ft 334 kts 148°
2026-05-08 03:14 -37.47105 -57.69561 10504 ft 334 kts 148°
2026-05-08 03:14 -37.49051 -57.67956 10506 ft 335 kts 148°
2026-05-08 03:14 -37.50995 -57.66350 10505 ft 335 kts 148°
2026-05-08 03:14 -37.52953 -57.64753 10508 ft 335 kts 149°
2026-05-08 03:15 -37.54927 -57.63204 10502 ft 332 kts 149°
2026-05-08 03:15 -37.56862 -57.61699 10161 ft 326 kts 150°
2026-05-08 03:15 -37.58765 -57.60221 9967 ft 312 kts 150°
2026-05-08 03:15 -37.60564 -57.58819 9856 ft 296 kts 150°
2026-05-08 03:16 -37.62270 -57.57487 9756 ft 281 kts 150°
2026-05-08 03:16 -37.63889 -57.56221 9662 ft 267 kts 150°
2026-05-08 03:16 -37.65413 -57.55028 9563 ft 255 kts 151°
2026-05-08 03:16 -37.66923 -57.53846 9326 ft 249 kts 151°
2026-05-08 03:17 -37.68375 -57.52710 9003 ft 248 kts 151°
2026-05-08 03:17 -37.69833 -57.51568 8709 ft 245 kts 151°
2026-05-08 03:17 -37.71277 -57.50436 8377 ft 244 kts 151°
2026-05-08 03:17 -37.72718 -57.49306 8049 ft 242 kts 151°
2026-05-08 03:18 -37.74143 -57.48187 7741 ft 240 kts 152°
2026-05-08 03:18 -37.75560 -57.47073 7401 ft 239 kts 152°
2026-05-08 03:18 -37.76971 -57.45963 7097 ft 238 kts 152°
2026-05-08 03:18 -37.78370 -57.44863 6772 ft 235 kts 151°
2026-05-08 03:19 -37.79761 -57.43767 6366 ft 235 kts 152°
2026-05-08 03:19 -37.81157 -57.42674 6095 ft 236 kts 152°
2026-05-08 03:19 -37.82538 -57.41586 5911 ft 233 kts 151°
2026-05-08 03:19 -37.83908 -57.40504 5681 ft 231 kts 152°
2026-05-08 03:20 -37.85280 -57.39421 5435 ft 232 kts 152°
2026-05-08 03:20 -37.86184 -57.38709 5285 ft 232 kts 152°
2026-05-08 03:20 -37.87553 -57.37630 5081 ft 231 kts 152°
2026-05-08 03:20 -37.89381 -57.36186 4652 ft 236 kts 152°
2026-05-08 03:21 -37.90310 -57.35452 4307 ft 239 kts 152°
2026-05-08 03:21 -37.91730 -57.34329 3814 ft 241 kts 152°
2026-05-08 03:21 -37.93214 -57.33358 3298 ft 239 kts 169°
2026-05-08 03:21 -37.94838 -57.33360 2871 ft 232 kts 196°
2026-05-08 03:22 -37.96282 -57.34169 2554 ft 224 kts 213°
2026-05-08 03:22 -37.97565 -57.35270 2237 ft 221 kts 216°
2026-05-08 03:22 -37.98799 -57.36369 2034 ft 213 kts 216°
2026-05-08 03:22 -37.99991 -57.37424 1826 ft 205 kts 216°
2026-05-08 03:23 -38.00983 -57.38623 1708 ft 193 kts 238°
2026-05-08 03:23 -38.01374 -57.40178 1694 ft 181 kts 263°
2026-05-08 03:23 -38.01214 -57.41746 1704 ft 184 kts 288°
2026-05-08 03:23 -38.00588 -57.43161 1715 ft 183 kts 301°
2026-05-08 03:24 -37.99916 -57.44497 1705 ft 174 kts 301°
2026-05-08 03:24 -37.99279 -57.45758 1694 ft 170 kts 301°
2026-05-08 03:24 -37.98647 -57.47023 1697 ft 170 kts 301°
2026-05-08 03:24 -37.98006 -57.48297 1560 ft 174 kts 301°
2026-05-08 03:25 -37.97357 -57.49577 1372 ft 170 kts 302°
2026-05-08 03:25 -37.96724 -57.50819 1118 ft 164 kts 303°
2026-05-08 03:25 -37.96108 -57.52010 901 ft 155 kts 302°
2026-05-08 03:25 -37.95540 -57.53148 702 ft 150 kts 302°
2026-05-08 03:26 -37.94976 -57.54252 508 ft 150 kts 302°
2026-05-08 03:26 -37.94416 -57.55359 314 ft 150 kts 303°
2026-05-08 03:26 -37.93853 -57.56472 105 ft 151 kts 303°
2026-05-08 03:26 -37.93323 -57.57515 48 ft 129 kts 301°
2026-05-08 03:27 -37.92932 -57.58289 48 ft 74 kts 302°
2026-05-08 03:27 -37.92758 -57.58633 60 ft 19 kts 302°
2026-05-08 03:27 -37.92743 -57.58672 62 ft 1 kts 255°
2026-05-08 03:27 -37.92752 -57.58668 62 ft 2 kts 141°
2026-05-08 03:28 -37.92778 -57.58612 59 ft 12 kts 120°
2026-05-08 03:28 -37.92828 -57.58504 52 ft 18 kts 120°
2026-05-08 03:28 -37.92894 -57.58370 49 ft 18 kts 118°
2026-05-08 03:28 -37.92956 -57.58240 51 ft 17 kts 123°
2026-05-08 03:29 -37.93019 -57.58117 52 ft 16 kts 123°
2026-05-08 03:29 -37.93080 -57.57998 53 ft 16 kts 128°
2026-05-08 03:29 -37.93175 -57.57995 53 ft 10 kts 211°
2026-05-08 03:29 -37.93236 -57.58038 53 ft 10 kts 199°
2026-05-08 03:30 -37.93353 -57.58023 53 ft 4 kts 193°
2026-05-08 03:30 -37.93349 -57.58059 53 ft 0 kts 321°
2026-05-08 03:31 -37.93343 -57.58063 53 ft 2 kts 329°
2026-05-08 03:31 -37.93332 -57.58071 53 ft 0 kts 332°